Find Starlink 34024

NORAD ID: 64031 Int'l Des: 2025-102 Owner: SPXS Country: US Constellation: starlink operational
LEOCIRCULAR

当前视图

正在加载3D地球...

About Starlink 34024

Starlink 34024 (NORAD 64031) is a starlink constellation satellite (v2 mini) launched May 16, 2025 by SPXS of US. It operates in LEO, CIRCULAR orbit with a mass of 575.00 kg.

即将过境

Passes for default location (London). Set your location on the main map for personalized predictions.

高度历史

Loading altitude history...

两行轨道根数

1 64031U 25102K 26235.47413271 .00006549 00000-0 55601-3 0 9995
2 64031 70.0015 53.9802 0001987 258.9614 101.1322 14.98337789 70877
Epoch: Aug 23, 2026 • Age: 18 hours

当前状态

高度 579.8 km
远地点 / 近地点 N/A
速度 7.57 km/s
星下点 46.34°N, 23.49°E
发射日期 May 16, 2025
运行时间 1.2 years
类型 internet

技术详情

分类 Payload
质量 575.00 kg
干质量 530.00 kg
总质量 575.00 kg
长度 0.30 m
直径 4.10 m
跨度 29.00 m
形状 Box + pan
制造商 SPXS
平台类型 Starlink V2MO
阶段状态 In Orbit
所有者/国家 SPXS/US

Most Searched